Volver al catálogo

STARLINK-30066

ActivoComunicacionesVLEO
NORAD 56704·PAYLOAD·🇺🇸 United States

Lanzado May 19, 2023 desde Cape Canaveral Space Force Station

Loading…

Próximos Pases (próximas 24 horas)

TLE

ActualizadoSource: CelesTrak SupGP

Época: Sep 15, 2026, 03:11 UTC

1 56704C 23067S   26258.13312500 -.00004765  00000+0 -17251-3 0  2588
2 56704  43.0027 280.9840 0001586 273.2708 139.9388 15.27591385    18

Sigue STARLINK-30066 en tiempo real con AllMySat

Download on the App Store